Lid_Strength_Index
-0 0 2 5 11 12 14 12 8 9 9 6 5 6 7 6 7 11 3 1 0 0 -0 -0 -1 -1 -1 -1 -1 -1 -1 -1 -1 -1 -1 -1 -1 -1 -1 -1 -1 -1 -1 -1 -1 -1 -1 -1 -1
4 4 5 8 13 16 14 9 10 7 7 5 5 6 7 8 4 4 3 1 0 0 -0 -0 -1 -1 -1 -1 -1 -1 -1 -1 -1 -1 -1 -1 -1 -1 -1 -1 -1 -1 -1 -1 -1 -1 -1 -1 -1
4 6 8 10 14 15 13 9 8 7 5 6 6 5 6 6 4 3 1 1 0 0 -0 -0 -1 -1 -1 -1 -1 -1 -1 -1 -1 -1 -1 -1 -1 -1 -1 -1 -1 -1 -1 -1 -1 -1 -1 -1 -1
5 6 8 13 13 12 11 8 7 6 5 5 5 7 5 3 3 2 1 0 0 0 -0 -1 -1 -1 -1 -1 -1 -1 -1 -1 -1 -1 -1 -1 -1 -1 -1 -2 -2 -1 -1 -1 -1 -1 -1 -1 -1
6 7 11 14 14 11 9 8 7 7 6 6 6 8 7 3 2 1 1 1 1 0 -0 -0 -1 -1 -1 -1 -1 -1 -1 -1 -1 -1 -1 -1 -1 -2 -2 -2 -2 -2 -1 -1 -1 -1 -1 -1 -2
8 9 12 13 12 11 9 8 7 7 6 6 7 7 6 2 2 2 1 1 0 1 -0 -0 -1 -1 -1 -1 -1 -1 -1 -1 -1 -1 -1 -1 -2 -2 -2 -2 -2 -2 -1 -1 -1 -1 -2 -2 -2
10 11 13 12 12 12 10 9 8 6 6 6 5 9 6 4 2 1 1 1 0 0 0 -0 -0 -1 -1 -1 -1 -1 -1 -1 -1 -1 -1 -2 -2 -2 -2 -2 -2 -2 -2 -1 -1 -2 -2 -3 -3
9 11 12 14 12 13 10 11 10 8 6 4 4 8 8 4 1 1 1 1 1 0 0 0 -0 -0 -0 -0 -1 -1 -1 -1 -1 -1 -2 -2 -2 -2 -2 -2 -2 -2 -2 -2 -2 -2 -3 -3 -3
8 13 14 13 12 12 10 12 10 8 6 5 5 5 4 2 1 2 2 2 2 1 1 0 0 -0 0 0 -0 -1 -1 -1 -1 -1 -1 -1 -0 -0 -1 -1 -2 -2 -2 -2 -2 -2 -2 -3 -3
9 13 12 9 9 9 12 12 11 10 9 6 6 4 3 2 3 3 4 4 3 2 1 1 0 0 0 -0 0 1 -0 -0 -0 -0 -0 0 0 0 -0 -1 -2 -2 -2 -2 -2 -2 -3 -2 1
10 11 9 8 8 8 11 11 10 10 11 6 6 5 4 3 3 3 3 3 3 2 1 1 0 0 0 0 0 0 0 0 0 0 0 0 0 1 0 0 0 0 -1 0 -0 0 0 1 3
12 9 8 8 7 8 8 10 10 10 9 5 4 4 3 4 4 4 3 3 4 3 2 2 0 0 0 0 0 0 0 0 0 0 0 0 1 1 1 -0 1 1 1 1 1 2 2 3 3
11 9 8 7 7 8 7 8 10 10 8 6 4 4 4 3 4 3 2 3 3 3 4 3 2 1 1 0 0 0 0 0 0 0 0 0 1 2 0 1 3 2 2 2 3 4 4 4 4
9 9 9 9 9 9 9 8 9 9 8 6 5 5 4 4 4 4 3 3 3 4 4 3 3 3 1 0 0 0 0 0 0 0 0 0 1 2 5 5 5 4 3 4 4 4 4 4 4
10 11 10 10 9 10 9 10 9 8 9 8 8 8 5 5 4 4 3 3 3 3 3 4 4 4 2 2 2 1 1 0 0 1 0 0 1 4 4 6 6 6 3 3 4 4 4 4 3
11 13 14 10 9 8 9 12 8 7 8 9 8 8 7 5 3 4 3 2 2 2 3 3 2 2 3 3 3 2 2 2 1 1 1 1 3 5 6 6 7 3 3 3 4 5 4 4 4
13 15 13 11 8 9 10 11 8 7 7 8 9 9 8 8 4 3 3 2 2 2 3 3 2 2 2 2 3 1 1 1 1 1 2 2 5 5 5 6 4 3 3 3 3 4 5 5 4
15 14 13 12 9 10 10 11 9 7 8 7 7 8 8 9 8 3 3 2 2 2 2 2 1 1 1 1 2 2 1 1 1 2 3 3 4 4 6 6 4 3 5 4 4 5 5 4 4
12 12 13 11 9 10 10 11 9 8 9 9 8 8 8 7 8 8 3 2 2 2 2 2 2 1 1 1 2 2 2 2 3 3 3 4 5 4 5 5 3 3 4 4 4 3 6 5 4
11 12 12 11 9 10 10 11 9 9 9 8 9 9 8 8 7 6 4 3 3 3 2 2 2 1 1 1 1 1 2 3 3 4 4 5 5 5 4 4 3 4 4 4 4 4 4 6 4
11 12 12 11 9 10 11 12 11 9 9 8 8 8 8 7 7 7 4 3 3 3 2 2 2 1 1 1 1 1 3 4 5 6 6 6 5 2 3 4 4 4 4 4 4 4 4 6 4
12 10 10 10 12 14 11 15 13 11 10 9 9 9 8 7 7 6 4 4 3 3 2 2 2 2 1 1 2 2 2 4 4 4 5 5 4 2 3 3 3 4 4 4 4 3 3 4 6
11 8 9 10 12 14 13 16 14 12 11 10 9 8 8 8 8 7 4 4 3 2 2 2 2 2 1 1 1 2 2 4 3 5 5 5 4 2 3 2 3 3 3 4 3 3 4 4 6
8 10 11 13 14 16 15 14 15 12 11 9 8 8 6 6 6 6 4 3 3 2 2 2 2 2 1 1 2 2 2 5 4 5 5 5 4 3 2 2 3 2 3 3 4 3 4 4 4
10 12 16 17 17 18 14 15 14 10 9 8 8 8 8 8 6 5 6 4 4 3 3 3 3 3 3 3 3 3 2 5 4 5 5 5 3 3 3 2 3 1 2 3 3 3 3 3 5
12 12 16 20 19 17 13 16 13 9 8 7 7 8 8 10 10 6 4 5 4 4 4 4 4 3 3 3 3 3 4 5 5 4 4 4 3 2 2 1 1 1 1 2 4 4 3 4 4
13 14 12 14 15 17 15 13 10 9 9 8 8 8 9 10 9 7 5 4 4 5 4 4 4 5 4 4 3 3 3 4 5 5 4 3 3 2 2 2 1 1 1 2 3 3 3 3 4
12 11 15 15 21 21 16 15 16 13 11 9 10 10 9 9 9 8 6 4 4 3 3 4 4 5 4 5 4 3 1 2 3 4 4 3 3 3 2 2 1 1 2 2 2 2 2 3 3
13 14 14 13 15 20 21 17 12 12 10 10 9 8 8 8 9 8 8 6 3 3 3 3 3 2 3 3 4 4 3 1 1 2 2 3 3 2 2 2 1 1 1 2 2 2 2 3 3
11 13 14 17 17 16 16 17 9 9 9 8 8 8 8 7 7 7 7 7 6 3 3 3 2 3 3 2 2 2 2 1 1 1 1 2 2 1 1 1 1 1 1 1 1 2 1 3 3